DLH47G EDDP-EDDH

Flight info

Callsign DLH47G
Flight time 0h 39m
Altitude 26000
Route PENEM1X PENEM Y233 ODLUN Z207 MAG M736 LODRO/N0378F280 M736 SOGMA M748 ERNUD M726 BKD L619 BUMIL/N0357F240 M748 RARUP RARUP6A
Aircraft A20N/M-SDE2E3FGHIRWXY/LB1

Departure

Time 2026-05-07 17:27
Airport Leipzig/Halle Airport (EDDP)

Arrival

Time 2026-05-07 18:06
Airport Hamburg Helmut Schmidt Airport (EDDH)
Time Latitude Longitude Altitude Speed Heading
2026-05-07 17:03 51.41919 12.21957 442 ft 0 kts 15°
2026-05-07 17:16 51.41918 12.21956 441 ft 1 kts 15°
2026-05-07 17:16 51.41910 12.21953 441 ft 1 kts 15°
2026-05-07 17:16 51.41900 12.21949 426 ft 1 kts 15°
2026-05-07 17:16 51.41891 12.21944 442 ft 1 kts 15°
2026-05-07 17:17 51.41880 12.21940 443 ft 2 kts 15°
2026-05-07 17:17 51.41869 12.21935 431 ft 2 kts 15°
2026-05-07 17:17 51.41857 12.21929 438 ft 2 kts 15°
2026-05-07 17:17 51.41845 12.21926 434 ft 2 kts 356°
2026-05-07 17:18 51.41833 12.21929 436 ft 2 kts 332°
2026-05-07 17:18 51.41824 12.21940 429 ft 2 kts 301°
2026-05-07 17:18 51.41822 12.21944 428 ft 1 kts 295°
2026-05-07 17:19 51.41822 12.21945 428 ft 0 kts 294°
2026-05-07 17:21 51.41824 12.21938 429 ft 3 kts 291°
2026-05-07 17:22 51.41835 12.21871 440 ft 9 kts 284°
2026-05-07 17:22 51.41855 12.21740 436 ft 15 kts 285°
2026-05-07 17:22 51.41886 12.21555 437 ft 20 kts 286°
2026-05-07 17:22 51.41928 12.21317 423 ft 24 kts 285°
2026-05-07 17:23 51.41965 12.21096 422 ft 18 kts 286°
2026-05-07 17:23 51.42002 12.20937 423 ft 13 kts 318°
2026-05-07 17:23 51.42088 12.20939 428 ft 14 kts 17°
2026-05-07 17:23 51.42184 12.20979 431 ft 14 kts 15°
2026-05-07 17:24 51.42277 12.21021 428 ft 14 kts 15°
2026-05-07 17:24 51.42368 12.21061 439 ft 13 kts 15°
2026-05-07 17:24 51.42455 12.21100 442 ft 14 kts 15°
2026-05-07 17:24 51.42557 12.21144 438 ft 17 kts 15°
2026-05-07 17:25 51.42684 12.21200 424 ft 22 kts 15°
2026-05-07 17:25 51.42843 12.21268 428 ft 16 kts 14°
2026-05-07 17:25 51.42921 12.21310 423 ft 13 kts 30°
2026-05-07 17:25 51.42985 12.21429 424 ft 15 kts 52°
2026-05-07 17:26 51.43053 12.21551 430 ft 15 kts 44°
2026-05-07 17:26 51.43128 12.21682 438 ft 16 kts 67°
2026-05-07 17:26 51.43137 12.21855 437 ft 26 kts 84°
2026-05-07 17:26 51.43157 12.22258 435 ft 84 kts 86°
2026-05-07 17:27 51.43219 12.23610 451 ft 155 kts 85°
2026-05-07 17:27 51.43306 12.25444 1126 ft 164 kts 83°
2026-05-07 17:27 51.43744 12.27071 2139 ft 162 kts 43°
2026-05-07 17:27 51.44752 12.27990 2834 ft 176 kts 19°
2026-05-07 17:28 51.46000 12.28557 3371 ft 199 kts 13°
2026-05-07 17:28 51.47408 12.29064 4056 ft 212 kts 12°
2026-05-07 17:28 51.48882 12.29396 5026 ft 216 kts
2026-05-07 17:28 51.50384 12.29136 5977 ft 220 kts 346°
2026-05-07 17:29 51.51856 12.28303 6691 ft 228 kts 336°
2026-05-07 17:29 51.53255 12.27109 6980 ft 228 kts 329°
2026-05-07 17:29 51.54606 12.25732 7364 ft 234 kts 327°
2026-05-07 17:29 51.55959 12.24278 8319 ft 231 kts 326°
2026-05-07 17:30 51.57295 12.22841 9308 ft 234 kts 326°
2026-05-07 17:30 51.58665 12.21386 10176 ft 237 kts 327°
2026-05-07 17:30 51.60034 12.19944 11004 ft 240 kts 327°
2026-05-07 17:30 51.61441 12.18471 11820 ft 245 kts 327°
2026-05-07 17:31 51.62943 12.16933 12237 ft 268 kts 328°
2026-05-07 17:31 51.64585 12.15270 12602 ft 290 kts 328°
2026-05-07 17:31 51.66360 12.13469 12936 ft 314 kts 329°
2026-05-07 17:31 51.68279 12.11520 13188 ft 338 kts 329°
2026-05-07 17:32 51.70265 12.09373 13829 ft 347 kts 323°
2026-05-07 17:32 51.72080 12.06773 14602 ft 352 kts 315°
2026-05-07 17:32 51.73741 12.03834 15349 ft 356 kts 313°
2026-05-07 17:32 51.75419 12.00862 16091 ft 361 kts 313°
2026-05-07 17:33 51.77123 11.97857 16819 ft 365 kts 313°
2026-05-07 17:33 51.78845 11.94817 17552 ft 369 kts 313°
2026-05-07 17:33 51.80587 11.91737 18278 ft 373 kts 313°
2026-05-07 17:33 51.82345 11.88623 18928 ft 376 kts 313°
2026-05-07 17:34 51.84263 11.85742 19584 ft 378 kts 325°
2026-05-07 17:34 51.86558 11.83684 20222 ft 379 kts 339°
2026-05-07 17:34 51.89109 11.82569 20856 ft 382 kts 350°
2026-05-07 17:34 51.91737 11.81789 21485 ft 385 kts 349°
2026-05-07 17:35 51.94381 11.80997 22073 ft 390 kts 349°
2026-05-07 17:35 51.97063 11.80201 22662 ft 393 kts 351°
2026-05-07 17:35 51.99806 11.79799 23217 ft 399 kts 358°
2026-05-07 17:35 52.02591 11.79972 23800 ft 402 kts
2026-05-07 17:36 52.05382 11.80471 24302 ft 406 kts
2026-05-07 17:36 52.08165 11.80944 24776 ft 409 kts
2026-05-07 17:36 52.11006 11.81420 25259 ft 412 kts
2026-05-07 17:36 52.13866 11.81903 25731 ft 415 kts
2026-05-07 17:37 52.16755 11.82395 25999 ft 418 kts
2026-05-07 17:37 52.19650 11.82890 26072 ft 420 kts
2026-05-07 17:37 52.22559 11.83391 26075 ft 420 kts
2026-05-07 17:37 52.25462 11.83895 26075 ft 419 kts
2026-05-07 17:38 52.28364 11.84399 26074 ft 419 kts
2026-05-07 17:38 52.31264 11.84904 26074 ft 419 kts
2026-05-07 17:38 52.34165 11.85409 26075 ft 419 kts
2026-05-07 17:38 52.37065 11.85914 26072 ft 419 kts
2026-05-07 17:39 52.39968 11.86419 26072 ft 419 kts
2026-05-07 17:39 52.42869 11.86924 26073 ft 420 kts
2026-05-07 17:39 52.45780 11.87431 26072 ft 420 kts
2026-05-07 17:39 52.48689 11.87939 26072 ft 420 kts
2026-05-07 17:40 52.51554 11.88440 26075 ft 405 kts
2026-05-07 17:40 52.54298 11.88921 26074 ft 388 kts
2026-05-07 17:40 52.56920 11.89381 26073 ft 370 kts
2026-05-07 17:40 52.59432 11.89823 26075 ft 359 kts
2026-05-07 17:41 52.61938 11.90264 26075 ft 366 kts
2026-05-07 17:41 52.64481 11.90712 26075 ft 367 kts
2026-05-07 17:41 52.67014 11.91161 26076 ft 367 kts
2026-05-07 17:41 52.69553 11.91613 26076 ft 367 kts
2026-05-07 17:42 52.72091 11.92075 26075 ft 367 kts
2026-05-07 17:42 52.74630 11.92535 26075 ft 367 kts
2026-05-07 17:42 52.77169 11.92990 26075 ft 367 kts
2026-05-07 17:42 52.79707 11.93455 26076 ft 368 kts
2026-05-07 17:43 52.82248 11.93918 26075 ft 367 kts
2026-05-07 17:43 52.84783 11.94373 26075 ft 367 kts
2026-05-07 17:43 52.87321 11.94203 26079 ft 370 kts 346°
2026-05-07 17:43 52.89754 11.92626 26077 ft 384 kts 328°
2026-05-07 17:44 52.91858 11.89788 26076 ft 399 kts 311°
2026-05-07 17:44 52.93453 11.85999 26076 ft 403 kts 298°
2026-05-07 17:44 52.94702 11.81829 26075 ft 403 kts 294°
2026-05-07 17:44 52.95896 11.77644 26073 ft 402 kts 295°
2026-05-07 17:45 52.97139 11.73500 25856 ft 400 kts 297°
2026-05-07 17:45 52.98429 11.69435 25547 ft 395 kts 298°
2026-05-07 17:45 52.99709 11.65532 25074 ft 392 kts 298°
2026-05-07 17:45 53.01023 11.61589 24508 ft 390 kts 298°
2026-05-07 17:46 53.02336 11.57665 23988 ft 387 kts 298°
2026-05-07 17:46 53.03638 11.53774 23448 ft 384 kts 298°
2026-05-07 17:46 53.04926 11.49916 22849 ft 380 kts 298°
2026-05-07 17:46 53.06203 11.46083 22262 ft 377 kts 298°
2026-05-07 17:47 53.07467 11.42277 21687 ft 375 kts 298°
2026-05-07 17:47 53.08720 11.38501 21125 ft 372 kts 298°
2026-05-07 17:47 53.09963 11.34748 20588 ft 369 kts 298°
2026-05-07 17:47 53.11274 11.31106 20049 ft 366 kts 305°
2026-05-07 17:48 53.12928 11.27913 19554 ft 364 kts 315°
2026-05-07 17:48 53.14888 11.25256 19095 ft 363 kts 324°
2026-05-07 17:48 53.16974 11.22883 18605 ft 362 kts 324°
2026-05-07 17:48 53.19034 11.20515 18095 ft 359 kts 324°
2026-05-07 17:49 53.21077 11.18152 17546 ft 356 kts 324°
2026-05-07 17:49 53.23106 11.15802 17002 ft 353 kts 324°
2026-05-07 17:49 53.25107 11.13484 16590 ft 348 kts 324°
2026-05-07 17:49 53.27099 11.11172 16207 ft 350 kts 324°
2026-05-07 17:50 53.29104 11.08845 15825 ft 350 kts 324°
2026-05-07 17:50 53.31083 11.06548 15446 ft 344 kts 324°
2026-05-07 17:50 53.33036 11.04276 15075 ft 343 kts 325°
2026-05-07 17:50 53.34998 11.01992 14703 ft 343 kts 324°
2026-05-07 17:51 53.36946 10.99721 14338 ft 340 kts 325°
2026-05-07 17:51 53.38861 10.97487 13981 ft 338 kts 325°
2026-05-07 17:51 53.40793 10.95230 13598 ft 338 kts 325°
2026-05-07 17:51 53.42707 10.92992 13188 ft 334 kts 325°
2026-05-07 17:52 53.44587 10.90704 12791 ft 334 kts 318°
2026-05-07 17:52 53.45985 10.87647 12403 ft 332 kts 295°
2026-05-07 17:52 53.46578 10.83929 12017 ft 331 kts 273°
2026-05-07 17:52 53.46444 10.80083 11640 ft 329 kts 264°
2026-05-07 17:53 53.46212 10.76278 11208 ft 327 kts 264°
2026-05-07 17:53 53.45976 10.72490 10735 ft 325 kts 264°
2026-05-07 17:53 53.45739 10.68726 10235 ft 324 kts 264°
2026-05-07 17:53 53.45502 10.64982 9730 ft 322 kts 264°
2026-05-07 17:54 53.45264 10.61252 9243 ft 319 kts 264°
2026-05-07 17:54 53.45028 10.57558 8677 ft 320 kts 264°
2026-05-07 17:54 53.44780 10.53850 8183 ft 318 kts 264°
2026-05-07 17:54 53.44536 10.50278 7919 ft 315 kts 264°
2026-05-07 17:55 53.44282 10.46597 7658 ft 318 kts 264°
2026-05-07 17:55 53.44033 10.42948 7407 ft 313 kts 264°
2026-05-07 17:55 53.43783 10.39303 7154 ft 314 kts 264°
2026-05-07 17:55 53.43537 10.35700 6902 ft 307 kts 264°
2026-05-07 17:56 53.43298 10.32194 6650 ft 298 kts 264°
2026-05-07 17:56 53.43072 10.28778 6401 ft 290 kts 264°
2026-05-07 17:56 53.42851 10.25459 6134 ft 283 kts 264°
2026-05-07 17:56 53.42637 10.22217 5875 ft 276 kts 264°
2026-05-07 17:57 53.42427 10.19017 5617 ft 278 kts 264°
2026-05-07 17:57 53.42289 10.16886 5445 ft 277 kts 264°
2026-05-07 17:57 53.42015 10.12622 5099 ft 275 kts 264°
2026-05-07 17:57 53.41828 10.09435 4840 ft 274 kts 267°
2026-05-07 17:58 53.41862 10.06241 4579 ft 274 kts 274°
2026-05-07 17:58 53.41984 10.03061 4315 ft 273 kts 274°
2026-05-07 17:58 53.42105 9.99901 4058 ft 272 kts 274°
2026-05-07 17:58 53.42229 9.96757 3799 ft 269 kts 274°
2026-05-07 17:59 53.42533 9.93702 3533 ft 262 kts 292°
2026-05-07 17:59 53.43213 9.90952 3277 ft 250 kts 294°
2026-05-07 17:59 53.43879 9.88310 3018 ft 241 kts 294°
2026-05-07 17:59 53.44522 9.85759 2775 ft 236 kts 294°
2026-05-07 18:00 53.45175 9.83236 2553 ft 234 kts 299°
2026-05-07 18:00 53.46160 9.81109 2502 ft 234 kts 314°
2026-05-07 18:00 53.47253 9.79097 2500 ft 232 kts 314°
2026-05-07 18:00 53.48340 9.77150 2490 ft 222 kts 323°
2026-05-07 18:01 53.49671 9.76187 2498 ft 204 kts
2026-05-07 18:01 53.50980 9.76941 2504 ft 199 kts 39°
2026-05-07 18:01 53.51984 9.78386 2501 ft 180 kts 45°
2026-05-07 18:01 53.52847 9.79746 2503 ft 158 kts 46°
2026-05-07 18:02 53.54270 9.81897 2409 ft 133 kts 34°
2026-05-07 18:02 53.55045 9.82707 2310 ft 130 kts 41°
2026-05-07 18:02 53.55659 9.83792 2061 ft 125 kts 55°
2026-05-07 18:03 53.56190 9.84963 1887 ft 127 kts 53°
2026-05-07 18:03 53.56757 9.86104 1713 ft 127 kts 53°
2026-05-07 18:03 53.57312 9.87230 1530 ft 125 kts 53°
2026-05-07 18:03 53.57872 9.88364 1357 ft 127 kts 52°
2026-05-07 18:04 53.58436 9.89504 1185 ft 126 kts 52°
2026-05-07 18:04 53.58990 9.90624 1013 ft 121 kts 52°
2026-05-07 18:04 53.59523 9.91702 835 ft 118 kts 51°
2026-05-07 18:04 53.60057 9.92784 672 ft 125 kts 51°
2026-05-07 18:05 53.60612 9.93911 502 ft 124 kts 50°
2026-05-07 18:05 53.61181 9.95035 333 ft 128 kts 50°
2026-05-07 18:05 53.61733 9.96170 172 ft 122 kts 51°
2026-05-07 18:05 53.62269 9.97259 55 ft 117 kts 51°
2026-05-07 18:06 53.62727 9.98204 42 ft 89 kts 49°
2026-05-07 18:06 53.63025 9.98803 45 ft 38 kts 48°
2026-05-07 18:06 53.63093 9.99114 46 ft 26 kts 91°
2026-05-07 18:06 53.63089 9.99220 46 ft 0 kts 94°
2026-05-07 18:07 53.63089 9.99228 46 ft 3 kts 94°
2026-05-07 18:07 53.63085 9.99303 46 ft 9 kts 95°
2026-05-07 18:08 53.63102 9.99422 44 ft 12 kts 63°
2026-05-07 18:08 53.63158 9.99512 44 ft 7 kts 47°
2026-05-07 18:08 53.63191 9.99584 46 ft 9 kts 54°
2026-05-07 18:08 53.63216 9.99649 48 ft 8 kts 57°
2026-05-07 18:09 53.63219 9.99655 48 ft 0 kts 56°
2026-05-07 18:10 53.63219 9.99656 48 ft 0 kts 56°
2026-05-07 18:10 53.63221 9.99660 48 ft 2 kts 56°
2026-05-07 18:10 53.63234 9.99690 45 ft 7 kts 49°
2026-05-07 18:11 53.63278 9.99763 48 ft 10 kts 47°
2026-05-07 18:11 53.63331 9.99867 48 ft 13 kts 50°
2026-05-07 18:11 53.63381 9.99971 48 ft 11 kts 51°
2026-05-07 18:11 53.63418 10.00046 48 ft 7 kts 49°
2026-05-07 18:12 53.63455 10.00120 48 ft 10 kts 49°
2026-05-07 18:12 53.63470 10.00198 48 ft 7 kts 126°
2026-05-07 18:12 53.63456 10.00211 48 ft 5 kts 155°
2026-05-07 18:12 53.63408 10.00223 48 ft 9 kts 178°
2026-05-07 18:13 53.63369 10.00245 46 ft 5 kts 110°
2026-05-07 18:13 53.63371 10.00309 48 ft 7 kts 86°
2026-05-07 18:13 53.63372 10.00344 46 ft 0 kts 86°